Year,Month,Day,Hour,Minute,Value (Times are PST for temperature in C)
2021,06,27,09,04,29.30
2021,06,27,09,05,29.40
2021,06,27,09,06,29.50
2021,06,27,09,07,29.50
2021,06,27,09,08,29.60
2021,06,27,09,09,29.60
2021,06,27,09,10,29.60
2021,06,27,09,11,29.50
2021,06,27,09,12,29.50
2021,06,27,09,13,29.60
2021,06,27,09,14,29.60
2021,06,27,09,15,29.60
2021,06,27,09,16,29.70
2021,06,27,09,17,29.80
2021,06,27,09,18,29.80
2021,06,27,09,19,29.90
2021,06,27,09,20,29.90
2021,06,27,09,21,29.90
2021,06,27,09,22,29.90
2021,06,27,09,23,29.80
2021,06,27,09,24,29.70
2021,06,27,09,25,29.60
2021,06,27,09,26,29.50
2021,06,27,09,27,29.50
2021,06,27,09,28,29.40
2021,06,27,09,29,29.30
2021,06,27,09,30,29.10
2021,06,27,09,31,29.00
2021,06,27,09,32,29.00
2021,06,27,09,33,28.90
2021,06,27,09,34,28.80
2021,06,27,09,35,28.80
2021,06,27,09,36,28.80
2021,06,27,09,37,28.80
2021,06,27,09,38,28.70
2021,06,27,09,39,28.70
2021,06,27,09,40,28.80
2021,06,27,09,41,28.80
2021,06,27,09,42,28.80
2021,06,27,09,43,28.80
2021,06,27,09,44,28.70
2021,06,27,09,45,28.60
2021,06,27,09,46,28.60
2021,06,27,09,47,28.50
2021,06,27,09,48,28.50
2021,06,27,09,49,28.50
2021,06,27,09,50,28.50
2021,06,27,09,51,28.40
2021,06,27,09,52,28.40
2021,06,27,09,53,28.40
2021,06,27,09,54,28.40
2021,06,27,09,55,28.40
2021,06,27,09,56,28.50
2021,06,27,09,57,28.50
2021,06,27,09,58,28.40
2021,06,27,09,59,28.40
2021,06,27,10,00,28.30
2021,06,27,10,01,28.20
2021,06,27,10,02,28.10
2021,06,27,10,03,28.00
2021,06,27,10,04,27.90
2021,06,27,10,05,27.90
2021,06,27,10,06,27.90
2021,06,27,10,07,27.90
2021,06,27,10,08,27.90
2021,06,27,10,09,27.90
2021,06,27,10,10,27.90
2021,06,27,10,11,27.80
2021,06,27,10,12,27.80
2021,06,27,10,13,27.70
2021,06,27,10,14,27.70
2021,06,27,10,15,27.70
2021,06,27,10,16,27.70
2021,06,27,10,17,27.70
2021,06,27,10,18,27.70
2021,06,27,10,19,27.70
2021,06,27,10,20,27.70
2021,06,27,10,21,27.70
2021,06,27,10,22,27.70
2021,06,27,10,23,27.80
2021,06,27,10,24,27.80
2021,06,27,10,25,27.80
2021,06,27,10,26,27.80
2021,06,27,10,27,27.90
2021,06,27,10,28,27.90
2021,06,27,10,29,28.00
2021,06,27,10,30,28.10
2021,06,27,10,31,28.10
2021,06,27,10,32,28.20
2021,06,27,10,33,28.20
2021,06,27,10,34,28.30
2021,06,27,10,35,28.40
2021,06,27,10,36,28.50
2021,06,27,10,37,28.50
2021,06,27,10,38,28.60
2021,06,27,10,39,28.60
2021,06,27,10,40,28.70
2021,06,27,10,41,28.90
2021,06,27,10,42,29.00
2021,06,27,10,43,29.10
2021,06,27,10,44,29.30
2021,06,27,10,45,29.30
2021,06,27,10,46,29.40
2021,06,27,10,47,29.40
2021,06,27,10,48,29.40
2021,06,27,10,49,29.40
2021,06,27,10,50,29.40
2021,06,27,10,51,29.50
2021,06,27,10,52,29.50
2021,06,27,10,53,29.50
2021,06,27,10,54,29.50
2021,06,27,10,55,29.50
2021,06,27,10,56,29.50
2021,06,27,10,57,29.40
2021,06,27,10,58,29.40
2021,06,27,10,59,29.40
2021,06,27,11,00,29.40
2021,06,27,11,01,29.40
2021,06,27,11,02,29.50
2021,06,27,11,03,29.50
2021,06,27,11,04,29.50
2021,06,27,11,05,29.50
2021,06,27,11,06,29.50
2021,06,27,11,07,29.50
2021,06,27,11,08,29.60
2021,06,27,11,09,29.60
2021,06,27,11,10,29.60
2021,06,27,11,11,29.70
2021,06,27,11,12,29.70
2021,06,27,11,13,29.80
2021,06,27,11,14,29.80
2021,06,27,11,15,29.80
2021,06,27,11,16,29.90
2021,06,27,11,17,29.90
2021,06,27,11,18,29.90
2021,06,27,11,19,30.00
2021,06,27,11,20,30.10
2021,06,27,11,21,30.10
2021,06,27,11,22,30.10
2021,06,27,11,23,30.10
2021,06,27,11,24,30.10
2021,06,27,11,25,30.20
2021,06,27,11,26,30.20
2021,06,27,11,27,30.30
2021,06,27,11,28,30.30
2021,06,27,11,29,30.30
2021,06,27,11,30,30.20
2021,06,27,11,31,30.20
2021,06,27,11,32,30.20
2021,06,27,11,33,30.20
2021,06,27,11,34,30.20
2021,06,27,11,35,30.20
2021,06,27,11,36,30.20
2021,06,27,11,37,30.20
2021,06,27,11,38,30.20
2021,06,27,11,39,30.20
2021,06,27,11,40,30.30
2021,06,27,11,41,30.40
2021,06,27,11,42,30.40
2021,06,27,11,43,30.40
2021,06,27,11,44,30.40
2021,06,27,11,45,30.40
2021,06,27,11,46,30.30
2021,06,27,11,47,30.30
2021,06,27,11,48,30.20
2021,06,27,11,49,30.20
2021,06,27,11,50,30.20
2021,06,27,11,51,30.20
2021,06,27,11,52,30.20
2021,06,27,11,53,30.20
2021,06,27,11,54,30.20
2021,06,27,11,55,30.20
2021,06,27,11,56,30.30
2021,06,27,11,57,30.40
2021,06,27,11,58,30.50
2021,06,27,11,59,30.70
2021,06,27,12,00,30.80
2021,06,27,12,01,31.00
2021,06,27,12,02,31.10
2021,06,27,12,03,31.20
2021,06,27,12,04,31.40
2021,06,27,12,05,31.60
2021,06,27,12,06,31.70
2021,06,27,12,07,31.90
2021,06,27,12,08,32.00
2021,06,27,12,09,32.10
2021,06,27,12,10,32.20
2021,06,27,12,11,32.20
2021,06,27,12,12,32.30
2021,06,27,12,13,32.30
2021,06,27,12,14,32.30
2021,06,27,12,15,32.40
2021,06,27,12,16,32.40
2021,06,27,12,17,32.50
2021,06,27,12,18,32.60
2021,06,27,12,19,32.60
2021,06,27,12,20,32.70
2021,06,27,12,21,32.70
2021,06,27,12,22,32.70
2021,06,27,12,23,32.70
2021,06,27,12,24,32.70
2021,06,27,12,25,32.70
2021,06,27,12,26,32.70
2021,06,27,12,27,32.70
2021,06,27,12,28,32.80
2021,06,27,12,29,32.80
2021,06,27,12,30,32.80
2021,06,27,12,31,32.80
2021,06,27,12,32,32.80
2021,06,27,12,33,32.80
2021,06,27,12,34,32.70
2021,06,27,12,35,32.70
2021,06,27,12,36,32.60
2021,06,27,12,37,32.60
2021,06,27,12,38,32.50
2021,06,27,12,39,32.50
2021,06,27,12,40,32.60
2021,06,27,12,41,32.60
2021,06,27,12,42,32.70
2021,06,27,12,43,32.80
2021,06,27,12,44,32.90
2021,06,27,12,45,33.10
2021,06,27,12,46,33.20
2021,06,27,12,47,33.20
2021,06,27,12,48,33.20
2021,06,27,12,49,33.20
2021,06,27,12,50,33.20
2021,06,27,12,51,33.20
2021,06,27,12,52,33.20
2021,06,27,12,53,33.30
2021,06,27,12,54,33.40
2021,06,27,12,55,33.50
2021,06,27,12,56,33.60
2021,06,27,12,57,33.70
2021,06,27,12,58,33.70
2021,06,27,12,59,33.70
2021,06,27,13,00,33.80
2021,06,27,13,01,33.90
2021,06,27,13,02,33.90
2021,06,27,13,03,33.80
2021,06,27,13,04,33.80
2021,06,27,13,05,33.90
2021,06,27,13,06,34.00
2021,06,27,13,07,34.00
2021,06,27,13,08,34.10
2021,06,27,13,09,34.10
2021,06,27,13,10,34.10
2021,06,27,13,11,34.10
2021,06,27,13,12,34.20
2021,06,27,13,13,34.20
2021,06,27,13,14,34.20
2021,06,27,13,15,34.20
2021,06,27,13,16,34.20
2021,06,27,13,17,34.20
2021,06,27,13,18,34.10
2021,06,27,13,19,34.10
2021,06,27,13,20,34.10
2021,06,27,13,21,34.20
2021,06,27,13,22,34.20
2021,06,27,13,23,34.20
2021,06,27,13,24,34.10
2021,06,27,13,25,34.20
2021,06,27,13,26,34.20
2021,06,27,13,27,34.10
2021,06,27,13,28,34.00
2021,06,27,13,29,33.90
2021,06,27,13,30,33.80
2021,06,27,13,31,33.70
2021,06,27,13,32,33.60
2021,06,27,13,33,33.60
2021,06,27,13,34,33.70
2021,06,27,13,35,33.90
2021,06,27,13,36,34.00
2021,06,27,13,37,34.10
2021,06,27,13,38,34.20
2021,06,27,13,39,34.20
2021,06,27,13,40,34.20
2021,06,27,13,41,34.10
2021,06,27,13,42,34.10
2021,06,27,13,43,34.10
2021,06,27,13,44,34.20
2021,06,27,13,45,34.30
2021,06,27,13,46,34.30
2021,06,27,13,47,34.40
2021,06,27,13,48,34.40
2021,06,27,13,49,34.40
2021,06,27,13,50,34.50
2021,06,27,13,51,34.40
2021,06,27,13,52,34.30
2021,06,27,13,53,34.20
2021,06,27,13,54,34.10
2021,06,27,13,55,34.00
2021,06,27,13,56,34.00
2021,06,27,13,57,33.90
2021,06,27,13,58,33.80
2021,06,27,13,59,33.70
2021,06,27,14,00,33.60
2021,06,27,14,01,33.50
2021,06,27,14,02,33.40
2021,06,27,14,03,33.40
2021,06,27,14,04,33.30
2021,06,27,14,05,33.30
2021,06,27,14,06,33.20
2021,06,27,14,07,33.20
2021,06,27,14,08,33.10
2021,06,27,14,09,33.00
2021,06,27,14,10,33.00
2021,06,27,14,11,33.00
2021,06,27,14,12,32.90
2021,06,27,14,13,32.90
2021,06,27,14,14,33.00
2021,06,27,14,15,33.00
2021,06,27,14,16,33.00
2021,06,27,14,17,33.00
2021,06,27,14,18,33.00
2021,06,27,14,19,32.90
2021,06,27,14,20,32.90
2021,06,27,14,21,32.80
2021,06,27,14,22,32.80
2021,06,27,14,23,32.80
2021,06,27,14,24,32.90
2021,06,27,14,25,32.90
2021,06,27,14,26,32.90
2021,06,27,14,27,33.00
2021,06,27,14,28,33.00
2021,06,27,14,29,33.00
2021,06,27,14,30,33.10
2021,06,27,14,31,33.10
2021,06,27,14,32,33.20
2021,06,27,14,33,33.30
2021,06,27,14,34,33.40
2021,06,27,14,35,33.40
2021,06,27,14,36,33.50
2021,06,27,14,37,33.60
2021,06,27,14,38,33.60
2021,06,27,14,39,33.60
2021,06,27,14,40,33.70
2021,06,27,14,41,33.90
2021,06,27,14,42,34.10
2021,06,27,14,43,34.30
2021,06,27,14,44,34.50
2021,06,27,14,45,34.80
2021,06,27,14,46,34.90
2021,06,27,14,47,35.10
2021,06,27,14,48,35.30
2021,06,27,14,49,35.50
2021,06,27,14,50,35.60
2021,06,27,14,51,35.70
2021,06,27,14,52,35.70
2021,06,27,14,53,35.70
2021,06,27,14,54,35.70
2021,06,27,14,55,35.70
2021,06,27,14,56,35.70
2021,06,27,14,57,35.70
2021,06,27,14,58,35.80
2021,06,27,14,59,35.80
2021,06,27,15,00,35.80
2021,06,27,15,01,35.90
2021,06,27,15,02,35.90
2021,06,27,15,03,35.90
2021,06,27,15,04,35.90
2021,06,27,15,05,35.90
2021,06,27,15,06,35.90
2021,06,27,15,07,36.00
2021,06,27,15,08,36.10
2021,06,27,15,09,36.10
2021,06,27,15,10,36.20
2021,06,27,15,11,36.30
2021,06,27,15,12,36.30
2021,06,27,15,13,36.40
2021,06,27,15,14,36.40
2021,06,27,15,15,36.50
2021,06,27,15,16,36.50
2021,06,27,15,17,36.50
2021,06,27,15,18,36.40
2021,06,27,15,19,36.40
2021,06,27,15,20,36.40
2021,06,27,15,21,36.40
2021,06,27,15,22,36.50
2021,06,27,15,23,36.50
2021,06,27,15,24,36.40
2021,06,27,15,25,36.30
2021,06,27,15,26,36.10
2021,06,27,15,27,35.90
2021,06,27,15,28,35.70
2021,06,27,15,29,35.60
2021,06,27,15,30,35.50
2021,06,27,15,31,35.40
2021,06,27,15,32,35.30
2021,06,27,15,33,35.30
2021,06,27,15,34,35.30
2021,06,27,15,35,35.30
2021,06,27,15,36,35.20
2021,06,27,15,37,35.20
2021,06,27,15,38,35.10
2021,06,27,15,39,35.00
2021,06,27,15,40,35.00
2021,06,27,15,41,34.90
2021,06,27,15,42,34.90
2021,06,27,15,43,34.90
2021,06,27,15,44,34.90
2021,06,27,15,45,34.90
2021,06,27,15,46,34.90
2021,06,27,15,47,34.80
2021,06,27,15,48,34.80
2021,06,27,15,49,34.80
2021,06,27,15,50,34.80
2021,06,27,15,51,34.80
2021,06,27,15,52,34.80
2021,06,27,15,53,34.80
2021,06,27,15,54,34.80
2021,06,27,15,55,34.80
2021,06,27,15,56,34.80
2021,06,27,15,57,34.90
2021,06,27,15,58,35.00
2021,06,27,15,59,35.00
2021,06,27,16,00,35.10
2021,06,27,16,01,35.10
2021,06,27,16,02,35.00
2021,06,27,16,03,34.90
2021,06,27,16,04,34.80
2021,06,27,16,05,34.70
2021,06,27,16,06,34.70
2021,06,27,16,07,34.60
2021,06,27,16,08,34.60
2021,06,27,16,09,34.60
2021,06,27,16,10,34.60
2021,06,27,16,11,34.60
2021,06,27,16,12,34.70
2021,06,27,16,13,34.80
2021,06,27,16,14,34.80
2021,06,27,16,15,34.90
2021,06,27,16,16,34.90
2021,06,27,16,17,34.90
2021,06,27,16,18,34.90
2021,06,27,16,19,34.90
2021,06,27,16,20,34.80
2021,06,27,16,21,34.80
2021,06,27,16,22,34.80
2021,06,27,16,23,34.80
2021,06,27,16,24,34.80
2021,06,27,16,25,34.70
2021,06,27,16,26,34.70
2021,06,27,16,27,34.60
2021,06,27,16,28,34.60
2021,06,27,16,29,34.60
2021,06,27,16,30,34.50
2021,06,27,16,31,34.50
2021,06,27,16,32,34.40
2021,06,27,16,33,34.40
2021,06,27,16,34,34.40
2021,06,27,16,35,34.40
2021,06,27,16,36,34.40
2021,06,27,16,37,34.40
2021,06,27,16,38,34.40
2021,06,27,16,39,34.40
2021,06,27,16,40,34.40
2021,06,27,16,41,34.30
2021,06,27,16,42,34.30
2021,06,27,16,43,34.30
2021,06,27,16,44,34.30
2021,06,27,16,45,34.20
2021,06,27,16,46,34.20
2021,06,27,16,47,34.30
2021,06,27,16,48,34.30
2021,06,27,16,49,34.30
2021,06,27,16,50,34.30
2021,06,27,16,51,34.30
2021,06,27,16,52,34.30
2021,06,27,16,53,34.30
2021,06,27,16,54,34.30
2021,06,27,16,55,34.30
2021,06,27,16,56,34.30
2021,06,27,16,57,34.30
2021,06,27,16,58,34.30
2021,06,27,16,59,34.40
2021,06,27,17,00,34.40
2021,06,27,17,01,34.40
2021,06,27,17,02,34.50
2021,06,27,17,03,34.60
2021,06,27,17,04,34.60
2021,06,27,17,05,34.50
2021,06,27,17,06,34.40
2021,06,27,17,07,34.30
2021,06,27,17,08,34.20
2021,06,27,17,09,34.10
2021,06,27,17,10,34.00
2021,06,27,17,11,34.00
2021,06,27,17,12,33.90
2021,06,27,17,13,33.90
2021,06,27,17,14,33.90
2021,06,27,17,15,33.90
2021,06,27,17,16,33.90
2021,06,27,17,17,33.90
2021,06,27,17,18,33.90
2021,06,27,17,19,34.00
2021,06,27,17,20,34.00
2021,06,27,17,21,34.10
2021,06,27,17,22,34.10
2021,06,27,17,23,34.10
2021,06,27,17,24,34.20
2021,06,27,17,25,34.20
2021,06,27,17,26,34.20
2021,06,27,17,27,34.20
2021,06,27,17,28,34.20
2021,06,27,17,29,34.30
2021,06,27,17,30,34.30
2021,06,27,17,31,34.30
2021,06,27,17,32,34.30
2021,06,27,17,33,34.30
2021,06,27,17,34,34.40
2021,06,27,17,35,34.50
2021,06,27,17,36,34.50
2021,06,27,17,37,34.60
2021,06,27,17,38,34.60
2021,06,27,17,39,34.60
2021,06,27,17,40,34.70
2021,06,27,17,41,34.70
2021,06,27,17,42,34.70
2021,06,27,17,43,34.70
2021,06,27,17,44,34.80
2021,06,27,17,45,34.80
2021,06,27,17,46,34.80
2021,06,27,17,47,34.90
2021,06,27,17,48,34.90
2021,06,27,17,49,35.00
2021,06,27,17,50,35.00
2021,06,27,17,51,35.00
2021,06,27,17,52,35.10
2021,06,27,17,53,35.10
2021,06,27,17,54,35.10
2021,06,27,17,55,35.10
2021,06,27,17,56,35.10
2021,06,27,17,57,35.10
2021,06,27,17,58,35.10
2021,06,27,17,59,35.10
2021,06,27,18,00,35.10
2021,06,27,18,01,35.10
2021,06,27,18,02,35.10
2021,06,27,18,03,35.00
2021,06,27,18,04,34.90
2021,06,27,18,05,34.90
2021,06,27,18,06,34.90
2021,06,27,18,07,34.90
2021,06,27,18,08,34.90
2021,06,27,18,09,34.90
2021,06,27,18,10,34.90
2021,06,27,18,11,34.80
2021,06,27,18,12,34.80
2021,06,27,18,13,34.80
2021,06,27,18,14,34.80
2021,06,27,18,15,34.80
2021,06,27,18,16,34.80
2021,06,27,18,17,34.80
2021,06,27,18,18,34.80
2021,06,27,18,19,34.80
2021,06,27,18,20,34.80
2021,06,27,18,21,34.80
2021,06,27,18,22,34.80
2021,06,27,18,23,34.80
2021,06,27,18,24,34.70
2021,06,27,18,25,34.70
2021,06,27,18,26,34.70
2021,06,27,18,27,34.60
2021,06,27,18,28,34.60
2021,06,27,18,29,34.60
2021,06,27,18,30,34.60
2021,06,27,18,31,34.70
2021,06,27,18,32,34.70
2021,06,27,18,33,34.70
2021,06,27,18,34,34.70
2021,06,27,18,35,34.70
2021,06,27,18,36,34.70
2021,06,27,18,37,34.70
2021,06,27,18,38,34.70
2021,06,27,18,39,34.70
2021,06,27,18,40,34.70
2021,06,27,18,41,34.70
2021,06,27,18,42,34.70
2021,06,27,18,43,34.80
2021,06,27,18,44,34.80
2021,06,27,18,45,34.80
2021,06,27,18,46,34.80
2021,06,27,18,47,34.80
2021,06,27,18,48,34.80
2021,06,27,18,49,34.80
2021,06,27,18,50,34.80
2021,06,27,18,51,34.80
2021,06,27,18,52,34.80
2021,06,27,18,53,34.80
2021,06,27,18,54,34.80
2021,06,27,18,55,34.80
2021,06,27,18,56,34.80
2021,06,27,18,57,34.80
2021,06,27,18,58,34.80
2021,06,27,18,59,34.80
2021,06,27,19,00,34.80
2021,06,27,19,01,34.80
2021,06,27,19,02,34.80
2021,06,27,19,03,34.80
